Regional Weather Roundup
Issued by NWS Midland/Odessa, TX

Skip options and go directly to product.
Home | Oldest Version | Previous Version | Current Version | All | Graphics & Text | Save Text | Print | Product List | Glossary On

Skip product version selection by date and time.   
980
ASUS44 KMAF 191910
RWRMAF
MIDLAND AREA WEATHER ROUNDUP
NATIONAL WEATHER SERVICE MIDLAND TX
200 PM CDT SUN APR 19 2015

...IN SOUTHWEST TEXAS AND SOUTHEAST NEW MEXICO...

CITY           SKY/WX    TMP DP  RH WIND       PRES   REMARKS
ALPINE         SUNNY     75  23  14 NE9       30.05F
ANDREWS        FAIR      71  31  22 N15G28    29.98F
ARTESIA        SUNNY     70  30  23 NE6G21    30.02F
BIG SPRING     SUNNY     76  29  18 NW18G37   29.96F
CARLSBAD       SUNNY     73  30  20 NE12      29.98F
DRYDEN           N/A     82  31  15 VRB3      29.88F
FORT STOCKTON  SUNNY     75  32  20 N7G18     29.97F
GUAD PASS      MOSUNNY   65  32  29 E16G26    30.06F
HOBBS          MOSUNNY   66  30  26 N9G28     30.01F
MARFA          NOT AVBL
MIDLAND AIRPK  SUNNY     73  32  21 N20G26    29.97S HAZE
MIDLAND INTL   SUNNY     74  33  22 N16G29    29.96F
ODESSA         SUNNY     73  30  20 N18G24    29.97F
PECOS          SUNNY     77  34  20 N15       29.95F
PRESIDIO       FAIR      81  23  12 W5        29.94F
SEMINOLE       MOSUNNY   69  33  26 N16G24    30.00S
SNYDER         SUNNY    N/A N/A N/A NW16G30   29.93S
WINK           SUNNY     76  28  17 NE14G24   29.96F
$$
...OTHER STATIONS IN TEXAS...

CITY           SKY/WX    TMP DP  RH WIND       PRES   REMARKS
ABILENE        SUNNY     74  42  31 NW17G25   29.87F
AMARILLO       CLOUDY    52  38  58 N32G40    30.01R
AUSTIN         PTSUNNY   86  64  47 W12G18    29.76F
BROWNSVILLE    PTSUNNY   84  75  74 SE12      29.79F
CORPUS CHRISTI CLOUDY    80  70  71 CALM      29.82F
DALLAS FTW     MOSUNNY   72  57  59 W17G32    29.75R
DEL RIO        SUNNY     87  48  25 VRB5      29.84F
EL PASO        MOSUNNY   75  23  14 VRB3      29.98F
HOUSTON INT    MOSUNNY   84  65  52 SW13G21   29.77F
LUBBOCK        PTSUNNY   64  37  36 N26G33    29.96S
SAN ANGELO     SUNNY     77  44  30 NW10G21   29.89F
SAN ANTONIO    MOSUNNY   84  64  50 SW15      29.81F
WACO           SUNNY     81  55  40 W21       29.76F
WICHITA FALLS  NOT AVBL
$$
...OTHER LOCATIONS IN NEW MEXICO...

CITY           SKY/WX    TMP DP  RH WIND       PRES   REMARKS
ALAMAGORDO     SUNNY     72  25  17 SW3       30.00F
ALBUQUERQUE    MOSUNNY   62  19  19 NW7       30.06F
CANNON AFB     NOT AVBL
CLOVIS         PTSUNNY   61  34  36 N30G40    30.06S
HOLLOMAN AFB   NOT AVBL
ROSWELL        SUNNY     70  30  22 N13       30.01F
RUIDOSO        MOSUNNY   57  21  24 NW10G17   30.10F
SANTA FE       SUNNY     57  17  21 NE5       30.05F
TRUTH OR CONSE SUNNY     72  23  16 N10       29.98F
TUCUMCARI      PTSUNNY   61  30  31 N20G33    30.04S
$$

USA.gov is the U.S. government's official web portal to all federal, state and local government web resources and services.